Location: Auttagershofen
(48.1940°N, 10.0237°E)
Time: 09:39:10
(UTC+00:00)

Cosmos 540 Rocket - Pass Details

Date: 18 January 2026
Orbit: 736 x 747 km, 74.1° (Epoch: 19 February)

Event Time Altitude Azimuth Distance (km) Brightness Sun altitude
Exits shadow 06:20:21 - 325° (NW) 2,765 5.9 -7.2°
Reaches altitude 10° 06:21:50 10° 318° (NW) 2,250 5.4 -7.0°
Maximum altitude 06:26:11 29° 259° (W) 1,327 4.3 -6.3°
Drops below altitude 10° 06:30:31 10° 200° (SSW) 2,240 6.0 -5.7°
Sets 06:33:06 0° 190° (S) 3,159 6.9 -5.3°
